sat.trackr.live / text

‹ back to catalog

STARLINK-5128

NORAD 53998 · 2022-125AL

PAYLOAD ACTIVE UNKNOWN

§ Identity

Operator
Country
US
Launch date
2022-10-05
Launch site
AFWTR
Launch vehicle
Mass (kg)
RCS (m²)

Purposes: comms

External: N2YO · Heavens-Above · Gunter

§ Orbital elements

Epoch: 2026-05-24T15:38:52.498464Z

Period
95.44 min
Inclination
53.2141°
Eccentricity
0.0001224
Mean motion
15.08838480 rev/d
Perigee alt
538.9 km
Apogee alt
540.6 km
Semi-major
6,917.9 km
B*
1.5241e-5
RAAN
232.8722°
Arg perigee
91.9163°
Mean anomaly
268.1970°
Rev number
20,093

§ Raw data

STARLINK-51281 53998U 22125AL  26144.65199651 -.00000045  00000+0  15241-4 0  99912 53998  53.2141 232.8722 0001224  91.9163 268.1970 15.08838480200938

JSON: /api/v1/satellites/53998 · /tle

For live sub-satellite position, see the globe view (requires WebGL).

§ Visibility from observer

Set your observer location to see the next 7 days of passes ≥ 10°. The values pass through the URL so the page stays shareable.

No JS? Fill the form by hand. The geolocation button needs JavaScript.